Location: Atlanta
(33.7490°N, 84.3880°W)
Time: 21:08:05
(UTC-05:00)

Daily predictions for brighter satellites

Satellite Brightness Start Highest point End
(mag) Time Altitude Azimuth Time Altitude Azimuth Time Altitude Azimuth
H-2A ROCKET BODY 4.5 17:55:25 10° SW 18:01:19 46° SE 18:30:41 10° E
USA 116 4.1 18:14:41 10° NNE 18:18:56 80° ESE 18:23:43 10° S
KORONAS-FOTON 3.7 18:15:37 10° S 18:19:24 71° E 18:23:10 10° NNE
Cosmos 2084 3.7 18:16:34 10° NNW 18:20:06 36° NE 18:23:43 10° ESE
Okean 3 Rocket 4.2 18:17:35 10° SSE 18:21:46 37° E 18:25:56 10° NNE
OAO 3 Rocket 3.2 18:22:59 10° WSW 18:27:40 84° SSE 18:32:26 10° E
Cosmos 2154 Rocket 4.2 18:23:09 10° N 18:29:28 85° W 18:35:48 10° S
Cosmos 2181 Rocket 4.1 18:26:02 10° S 18:32:24 71° E 18:38:49 10° N
Cosmos 1943 3.4 18:27:47 10° SSW 18:33:24 75° WNW 18:39:02 10° NNE
SKYMED 2 3.5 18:35:08 10° NNE 18:39:30 80° ESE 18:43:49 10° S
Cosmos 968 Rocket 4.0 18:34:57 10° N 18:39:36 34° ENE 18:44:13 10° SE
METEOR-M 4.1 18:34:43 10° SSE 18:40:03 80° ENE 18:45:25 10° N
ATLAS 2AS CENTAUR R/B 3.0 18:33:02 10° NNW 18:40:49 60° NE 18:47:53 10° SE
Lacrosse 5 rocket 3.6 18:39:19 10° WNW 18:43:21 32° WSW 18:47:27 10° S
Cosmos 1726 2.0 18:40:06 10° N 18:43:47 72° E 18:47:24 10° SSE
ALOS 2.4 18:39:38 10° SSE 18:44:09 52° ENE 18:48:41 10° N
YAOGAN 1 2.6 18:40:53 10° SSE 18:45:12 89° WSW 18:49:33 10° NNW
CZ-4 R/B 2.3 18:41:47 10° S 18:45:53 56° W 18:50:03 10° NNW
EO 1 Del DPAF 3.2 18:45:57 10° NNE 18:49:45 63° E 18:53:32 10° S
Meteor 2-16 Rocket 4.4 18:49:55 10° N 18:56:01 78° E 19:02:09 10° S
Cosmos 2218 Rocket 3.9 18:55:58 10° N 19:02:03 61° E 19:08:06 10° SSE
SL-8 Rocket 3.9 18:56:55 10° N 19:03:06 77° E 19:09:19 10° S
Cosmos 2263 4.1 18:59:34 10° NNW 19:05:21 75° ENE 19:11:03 10° SSE
IUS-26 SRM-1 4.4 19:03:36 10° WSW 19:05:40 17° SSW 19:07:08 11° SSE
Thor Agena Rocket 4.3 19:02:12 16° NE 19:05:43 32° E 19:10:19 10° SSE
SL-14 R/B 3.6 19:02:12 10° SSW 19:06:12 67° W 19:10:10 10° N
Meteor 2-10 4.1 19:03:13 10° N 19:08:15 79° W 19:13:21 10° S
Cosmos 1959 Rocket 4.4 19:07:41 10° N 19:14:02 78° E 19:20:23 10° S
Cosmos 2369 Rocket 2.8 19:12:19 10° NNW 19:17:52 59° WSW 19:23:26 10° S
SL-08 R/B 4.4 19:11:52 10° N 19:18:02 68° E 19:24:07 10° SSE
SPOT 3 Rocket 3.5 19:13:04 10° SSE 19:18:13 88° WSW 19:23:23 10° NNW
Cosmos 2221 3.9 19:16:19 10° NNW 19:20:25 41° W 19:24:31 10° SSW
TSX-5 3.3 19:18:16 10° SSW 19:21:25 75° WNW 19:22:33 36° NNE
Cosmos 1315 Rocket 3.1 19:17:49 10° SSW 19:21:45 67° W 19:25:39 10° N
Cosmos 1408 Rocket 3.4 19:17:51 10° S 19:22:10 86° E 19:26:28 10° N
Cosmos 1626 1.9 19:19:35 10° S 19:23:16 80° E 19:25:22 25° N
Cosmos 1300 3.2 19:19:44 10° NNW 19:23:31 60° W 19:27:15 10° S
USA 81 4.3 19:25:03 10° SSE 19:30:00 44° E 19:31:24 36° NE
GEOS 3 Rocket 3.8 19:29:52 33° ESE 19:31:53 50° NE 19:37:03 10° NNW
Meteor 1-11 4.1 19:28:00 10° S 19:33:34 82° E 19:39:11 10° N
Meteor 1-27 4.3 19:28:41 10° N 19:34:14 52° E 19:39:51 10° SSE
Cosmos 44 3.0 19:31:01 10° SSW 19:35:18 76° WNW 19:36:52 38° NNE
ERS-2 2.8 19:33:46 10° S 19:37:21 54° WSW 19:40:59 10° NNW
Cosmos 1656 Rocket 3.7 19:34:23 10° N 19:39:44 53° ENE 19:41:01 43° ESE
Cosmos 1943 Rocket 2.8 19:35:08 10° NNW 19:40:36 57° WSW 19:46:00 10° S
Cosmos 2366 rocket 4.3 19:37:10 10° NNW 19:43:21 66° W 19:49:26 10° S
Cosmos 1743 Rocket 3.4 19:42:16 10° S 19:46:32 75° ESE 19:46:32 75° ESE
Cosmos 1777 Rocket 3.9 19:43:50 10° N 19:49:01 63° ENE 19:49:05 63° ENE
FengYun 1-2 T 4.3 19:43:46 10° S 19:49:25 82° WSW 19:55:05 10° NNW
Meteor 2-15 4.4 19:44:05 10° S 19:50:03 58° E 19:51:22 48° NE
Cosmos 44 Rocket 3.4 19:47:25 10° SW 19:52:02 66° WNW 19:53:08 49° N
Cosmos 2151 3.4 19:47:57 10° S 19:51:08 50° S 19:51:08 50° S
COSMOS 2406 3.1 19:47:13 10° S 19:52:55 71° ESE 19:53:50 59° NE
Nadezhda 3 Rocket 3.9 19:48:14 10° S 19:54:31 86° E 20:00:54 10° N
Cosmos 2058 3.3 19:50:55 10° S 19:54:13 56° SSW 19:54:13 56° SSW
H-2A R/B 3.8 19:51:35 10° S 19:55:11 44° W 19:58:51 10° NNW
ASTRO E2 3.8 19:51:41 10° WSW 19:54:39 36° SSW 19:54:39 36° SSW
Cosmos 2098 Rocket 3.7 19:55:32 10° N 20:00:42 83° W 20:07:12 10° S
OAO 3 Rocket 3.7 20:06:33 10° W 20:10:16 54° WNW 20:10:16 54° WNW
Cosmos 332 Rocket 4.4 20:08:44 10° SSW 20:12:18 49° SSW 20:12:18 49° SSW
Meteor 2-15 Rocket 4.5 20:08:58 10° S 20:14:08 64° SSE 20:14:08 64° SSE
NOSS 3-4 (A) 4.2 20:47:07 10° NW 20:53:32 63° W 20:53:32 63° W
NOSS 3-4 (C) 4.2 20:47:13 10° NW 20:53:33 62° W 20:53:33 62° W
